This demonstration page uses our WeatherBlox Daily Observations layout. Learn more.

Left ArrowRight Arrow

36.17497, -115.13722

Hourly Observations for June 23, 2019

Temp ( °F °C ) Dew Point ( °F °C ) Humidity (%) Winds ( mph kmh ) Pressure ( in mb ) Visibility ( mi km ) Precip ( " mm )
12:53 am 00:53 Clear 79 26.1 20 -6.7 11 11 NE 3 6 29.97 1015 10 16 0.00 0.00
1:53 am 01:53 Clear 76 24.4 20 -6.7 12 12 Calm 29.98 1015 10 16 0.00 0.00
2:53 am 02:53 Clear 74 23.3 21 -6.1 14 14 Calm 29.98 1015 10 16 0.00 0.00
3:53 am 03:53 Clear 74 23.3 22 -5.6 14 14 S 8 13 29.98 1015 10 16 0.00 0.00
4:53 am 04:53 Clear 71 21.7 24 -4.4 17 17 Calm 29.99 1016 10 16 0.00 0.00
5:53 am 05:53 Sunny 67 19.4 26 -3.3 21 21 NW 5 7 30.01 1016 10 16 0.00 0.00
6:53 am 06:53 Sunny 71 21.7 28 -2.2 20 20 Calm 30.02 1017 10 16 0.00 0.00
7:53 am 07:53 Sunny 76 24.4 25 -3.9 15 15 Calm 30.03 1017 10 16 0.00 0.00
8:53 am 08:53 Sunny 78 25.6 25 -3.9 14 14 ESE 3 6 30.04 1017 10 16 0.00 0.00
9:53 am 09:53 Sunny 81 27.2 22 -5.6 11 11 ESE 8 13 30.02 1017 10 16 0.00 0.00
10:53 am 10:53 Sunny 84 28.9 22 -5.6 10 10 Calm 30.01 1016 10 16 0.00 0.00
11:53 am 11:53 Sunny 86 30 22 -5.6 9 9 VRB 5 7 29.99 1016 10 16 0.00 0.00
12:53 pm 12:53 Sunny 86 30 22 -5.6 9 9 WNW 6 9 29.97 1015 10 16 0.00 0.00
1:53 pm 13:53 Sunny 89 31.7 22 -5.6 8 8 ESE 5 7 29.94 1014 10 16 0.00 0.00
2:53 pm 14:53 Sunny 90 32.2 21 -6.1 8 8 VRB 3 6 29.91 1013 10 16 0.00 0.00
3:53 pm 15:53 Sunny 92 33.3 22 -5.6 8 8 ESE 7 11 29.88 1012 10 16 0.00 0.00
4:53 pm 16:53 Sunny 94 34.4 21 -6.1 7 7 ENE 10 17 29.86 1011 10 16 0.00 0.00
5:53 pm 17:53 Sunny 92 33.3 22 -5.6 8 8 SSE 6 9 29.85 1011 10 16 0.00 0.00
6:53 pm 18:53 Sunny 92 33.3 23 -5 8 8 SE 5 7 29.84 1011 10 16 0.00 0.00
7:53 pm 19:53 Sunny 90 32.2 23 -5 9 9 SSE 6 9 29.84 1010 10 16 0.00 0.00
8:53 pm 20:53 Clear 86 30 22 -5.6 9 9 ESE 7 11 29.85 1011 10 16 0.00 0.00
9:53 pm 21:53 Clear 85 29.4 23 -5 10 10 Calm 29.86 1011 10 16 0.00 0.00
10:53 pm 22:53 Clear 84 28.9 26 -3.3 12 12 N 3 6 29.85 1011 10 16 0.00 0.00
11:53 pm 23:53 Clear 79 26.1 30 -1.1 17 17 NW 6 9 29.85 1011 10 16 0.00 0.00

Powered by AerisWeather